{"data":{"norad_id":50840,"epoch":"2026-09-19T23:21:37.192032Z","epoch_age_seconds":93737,"freshness":"FRESH","line1":"1 50840U 22001AP  26262.97334713  .00001130  00000+0  45685-4 0  9993","line2":"2 50840  53.1622  12.3849 0000865  88.2231 271.8870 15.33535819259785","mean_motion":15.33535819,"eccentricity":8.65e-5,"inclination_deg":53.1622,"raan_deg":12.3849,"arg_perigee_deg":88.2231,"mean_anomaly_deg":271.887,"bstar":4.5685e-5,"rev_number":25978,"period_min":93.900643347151,"perigee_km":464.68101940352,"apogee_km":465.86492932908,"semimajor_km":6843.4099743663,"source":"CELESTRAK","updated_at":"2026-09-20T09:00:39.581676Z"}}